GW1753 Weather Reports


time (UTC)temp
C
wind
direction
speed
KPH
gust
KPH
rain 1hr
cm
rain 24hr
cm
rain mn
cm
humidity
%
barometer
mb
20260509151322 15 276 0.0 3.2 0.00 0.00 0.00 52 1019.9
20260509150821 15 239 0.0 0.0 0.00 0.00 0.00 53 1019.9
20260509150318 15 236 1.6 6.4 0.00 0.00 0.00 53 1019.9
20260509145815 14 257 0.0 3.2 0.00 0.00 0.00 54 1019.9
20260509145315 15 246 3.2 6.4 0.00 0.00 0.00 55 1019.7
20260509144812 15 252 0.0 4.8 0.00 0.00 0.00 55 1019.7
20260509144309 15 220 6.4 11.3 0.00 0.00 0.00 54 1019.8
20260509143806 15 292 3.2 3.2 0.00 0.00 0.00 52 1019.8
20260509143303 14 258 0.0 0.0 0.00 0.00 0.00 54 1019.7
20260509142759 14 247 0.0 4.8 0.00 0.00 0.00 54 1019.7
20260509142255 13 244 0.0 0.0 0.00 0.00 0.00 56 1019.6
20260509141751 13 271 1.6 3.2 0.00 0.00 0.00 56 1019.4
20260509141248 13 280 0.0 0.0 0.00 0.00 0.00 60 1019.3
20260509140745 13 274 0.0 0.0 0.00 0.00 0.00 59 1019.6
20260509140242 13 266 0.0 4.8 0.00 0.00 0.00 59 1019.4
20260509135740 13 263 6.4 6.4 0.00 0.00 0.00 60 1019.2
20260509135237 13 300 0.0 1.6 0.00 0.00 0.00 60 1019.3
20260509134734 13 317 0.0 0.0 0.00 0.00 0.00 61 1019.4
20260509134232 13 275 0.0 3.2 0.00 0.00 0.00 61 1019.2
20260509133729 12 294 0.0 0.0 0.00 0.00 0.00 61 1019.1
20260509133225 12 234 0.0 0.0 0.00 0.00 0.00 62 1019.2
20260509132724 12 272 0.0 0.0 0.00 0.00 0.00 62 1019.0
20260509132222 12 298 0.0 0.0 0.00 0.00 0.00 62 1019.0
20260509131718 12 326 0.0 0.0 0.00 0.00 0.00 62 1019.1
20260509131215 12 314 0.0 0.0 0.00 0.00 0.00 62 1018.8
20260509130711 12 283 0.0 0.0 0.00 0.00 0.00 64 1018.8
20260509130207 12 239 0.0 0.0 0.00 0.00 0.00 63 1018.8
20260509125704 12 234 3.2 4.8 0.00 0.00 0.00 62 1018.7
20260509125201 12 244 0.0 4.8 0.00 0.00 0.00 61 1018.5
20260509124657 11 262 0.0 1.6 0.00 0.00 0.00 62 1018.7
20260509124154 11 250 0.0 3.2 0.00 0.00 0.00 63 1018.4
20260509123652 11 268 0.0 1.6 0.00 0.00 0.00 63 1018.5
20260509123149 11 285 0.0 0.0 0.00 0.00 0.00 62 1018.4
20260509122644 11 313 0.0 1.6 0.00 0.00 0.00 62 1018.4
20260509122141 11 299 0.0 0.0 0.00 0.00 0.00 61 1018.4
20260509121638 12 294 0.0 3.2 0.00 0.00 0.00 59 1018.2
20260509121136 12 307 0.0 0.0 0.00 0.00 0.00 58 1018.2
20260509120634 11 314 0.0 0.0 0.00 0.00 0.00 59 1018.2
20260509120132 11 298 0.0 1.6 0.00 0.00 0.00 59 1018.1
20260509115629 12 254 1.6 6.4 0.00 0.00 0.00 59 1017.9
20260509115127 12 233 1.6 3.2 0.00 0.00 0.00 60 1017.9
20260509114624 11 245 6.4 11.3 0.00 0.00 0.00 58 1017.7
20260509114123 11 227 0.0 0.0 0.00 0.00 0.00 59 1017.8
20260509113621 11 271 0.0 0.0 0.00 0.00 0.00 59 1017.8
20260509113118 11 281 0.0 0.0 0.00 0.00 0.00 59 1017.7
20260509112614 11 293 0.0 0.0 0.00 0.00 0.00 61 1017.6
20260509112112 11 307 0.0 1.6 0.00 0.00 0.00 62 1017.7
20260509111609 11 323 1.6 4.8 0.00 0.00 0.00 62 1017.5
20260509111106 11 316 0.0 0.0 0.00 0.00 0.00 61 1017.5
20260509110603 11 316 0.0 1.6 0.00 0.00 0.00 61 1017.3
20260509110059 11 287 0.0 0.0 0.00 0.00 0.00 61 1017.4
20260509105558 11 293 0.0 0.0 0.00 0.00 0.00 62 1017.3
20260509105055 11 294 0.0 0.0 0.00 0.00 0.00 62 1017.1
20260509104552 12 293 0.0 3.2 0.00 0.00 0.00 63 1017.3
20260509104049 12 277 0.0 4.8 0.00 0.00 0.00 64 1017.0
20260509103547 12 266 4.8 9.7 0.00 0.00 0.00 64 1017.0
20260509103045 12 286 3.2 6.4 0.00 0.00 0.00 64 1017.0
20260509102542 12 279 6.4 9.7 0.00 0.00 0.00 63 1016.8
20260509102039 12 253 4.8 6.4 0.00 0.00 0.00 62 1016.8
20260509101535 12 277 3.2 4.8 0.00 0.00 0.00 62 1016.8
20260509101032 12 265 1.6 6.4 0.00 0.00 0.00 60 1016.9
20260509100529 12 287 0.0 4.8 0.00 0.00 0.00 60 1016.8
20260509100026 12 272 1.6 4.8 0.00 0.00 0.00 59 1016.8
20260509095523 12 291 0.0 4.8 0.00 0.00 0.00 58 1016.6
20260509095020 12 295 1.6 3.2 0.00 0.00 0.00 57 1016.7
20260509094516 12 285 1.6 6.4 0.00 0.00 0.00 55 1016.5
20260509094014 12 303 0.0 4.8 0.00 0.00 0.00 53 1016.5
20260509093512 11 312 0.0 1.6 0.00 0.00 0.00 55 1016.4
20260509093009 11 290 0.0 1.6 0.00 0.00 0.00 58 1016.5
20260509092507 11 284 0.0 0.0 0.00 0.00 0.00 58 1016.2
20260509092005 11 284 0.0 0.0 0.00 0.00 0.00 58 1016.3
20260509091502 11 266 0.0 0.0 0.00 0.00 0.00 59 1016.4
20260509090959 11 271 0.0 0.0 0.00 0.00 0.00 57 1016.1
20260509090456 11 272 0.0 0.0 0.00 0.00 0.00 56 1016.2
20260509085954 11 272 0.0 0.0 0.00 0.00 0.00 57 1016.1
20260509085450 11 270 0.0 0.0 0.00 0.00 0.00 56 1015.9
20260509084947 12 275 0.0 0.0 0.00 0.00 0.00 55 1015.9
20260509084443 12 278 0.0 0.0 0.00 0.00 0.00 54 1015.9
20260509083941 12 284 0.0 0.0 0.00 0.00 0.00 53 1015.9
20260509083438 12 296 0.0 3.2 0.00 0.00 0.00 54 1015.9
20260509082929 12 333 0.0 3.2 0.00 0.00 0.00 54 1015.7
20260509082426 12 286 0.0 0.0 0.00 0.00 0.00 52 1015.7
20260509081923 12 298 0.0 0.0 0.00 0.00 0.00 50 1015.6
20260509081420 12 294 0.0 0.0 0.00 0.00 0.00 49 1015.8
20260509080917 12 327 0.0 0.0 0.00 0.00 0.00 49 1015.8
20260509080415 12 321 1.6 3.2 0.00 0.00 0.00 49 1015.9
20260509075913 12 323 0.0 3.2 0.00 0.00 0.00 49 1015.6
20260509075410 12 321 0.0 0.0 0.00 0.00 0.00 50 1015.8
20260509074908 12 319 0.0 0.0 0.00 0.00 0.00 49 1015.9
20260509074405 12 312 0.0 1.6 0.00 0.00 0.00 48 1015.8
20260509073901 12 298 0.0 0.0 0.00 0.00 0.00 48 1015.6
20260509073358 13 330 1.6 1.6 0.00 0.00 0.00 47 1015.4
20260509072854 13 340 1.6 4.8 0.00 0.00 0.00 47 1015.6
20260509072351 13 322 1.6 4.8 0.00 0.00 0.00 46 1015.3
20260509071847 13 323 3.2 4.8 0.00 0.00 0.00 46 1015.4
20260509071344 13 318 3.2 3.2 0.00 0.00 0.00 46 1015.4
20260509070842 14 339 1.6 3.2 0.00 0.00 0.00 45 1015.5
20260509070338 14 342 3.2 4.8 0.00 0.00 0.00 47 1015.3
20260509065835 14 316 4.8 6.4 0.00 0.00 0.00 50 1015.4
20260509065331 14 316 3.2 9.7 0.00 0.00 0.00 49 1015.4
20260509064826 14 308 6.4 12.9 0.00 0.00 0.00 51 1015.1
20260509064325 15 311 6.4 12.9 0.00 0.00 0.00 51 1015.2
20260509063822 15 313 4.8 17.7 0.00 0.00 0.00 51 1014.9
20260509063318 15 327 14.5 20.9 0.00 0.00 0.00 51 1015.1
20260509062816 15 322 11.3 20.9 0.00 0.00 0.00 51 1014.7
20260509062312 15 316 14.5 24.1 0.00 0.00 0.00 51 1014.6
20260509061809 15 293 14.5 24.1 0.00 0.00 0.00 51 1014.5
20260509061308 15 297 12.9 25.7 0.00 0.00 0.00 51 1014.5
20260509060804 15 324 12.9 25.7 0.00 0.00 0.00 52 1014.2
20260509060301 15 306 14.5 24.1 0.00 0.00 0.00 51 1014.6
20260509055756 15 298 9.7 24.1 0.00 0.00 0.00 51 1014.5
20260509055252 15 317 9.7 24.1 0.00 0.00 0.00 50 1014.6
20260509054749 15 296 9.7 20.9 0.00 0.00 0.00 50 1014.7
20260509054246 15 283 11.3 17.7 0.00 0.00 0.00 49 1014.5
20260509053745 16 286 14.5 20.9 0.00 0.00 0.00 48 1014.3
20260509053241 16 339 14.5 22.5 0.00 0.00 0.00 48 1014.3
20260509052739 16 310 9.7 24.1 0.00 0.00 0.00 46 1014.2
20260509052237 16 284 9.7 14.5 0.00 0.00 0.00 45 1014.2
20260509051734 16 332 14.5 24.1 0.00 0.00 0.00 44 1014.1
20260509051232 17 316 16.1 20.9 0.00 0.00 0.00 42 1014.2
20260509050728 17 275 11.3 20.9 0.00 0.00 0.00 39 1014.1
20260509050225 17 320 17.7 24.1 0.00 0.00 0.00 39 1014.0
20260509045722 16 286 9.7 17.7 0.00 0.00 0.00 35 1014.0
20260509045219 17 328 4.8 12.9 0.00 0.00 0.00 30 1014.2
20260509044716 16 325 6.4 12.9 0.00 0.00 0.00 30 1014.1
20260509044214 16 329 6.4 11.3 0.00 0.00 0.00 30 1014.1
20260509043710 17 323 1.6 4.8 0.00 0.00 0.00 30 1013.9
20260509043206 17 332 3.2 9.7 0.00 0.00 0.00 29 1013.8
20260509042703 17 335 3.2 14.5 0.00 0.00 0.00 29 1013.8
20260509042158 17 30 8.0 12.9 0.00 0.00 0.00 29 1013.9
20260509041655 17 327 0.0 0.0 0.00 0.00 0.00 30 1013.4
20260509041153 17 319 0.0 4.8 0.00 0.00 0.00 30 1013.4
20260509040651 17 292 3.2 4.8 0.00 0.00 0.00 29 1013.4
20260509040148 18 297 0.0 3.2 0.00 0.00 0.00 28 1013.2
20260509035644 18 323 3.2 6.4 0.00 0.00 0.00 27 1013.1
20260509035141 18 332 4.8 6.4 0.00 0.00 0.00 26 1013.1
20260509034639 18 287 1.6 3.2 0.00 0.00 0.00 25 1013.2
20260509034136 19 343 0.0 4.8 0.00 0.00 0.00 25 1013.0
20260509033633 20 302 6.4 17.7 0.00 0.00 0.00 24 1013.1
20260509033130 20 282 6.4 16.1 0.00 0.00 0.00 24 1013.1
20260509032627 18 342 8.0 29.0 0.00 0.00 0.00 25 1013.0
20260509032124 17 296 9.7 12.9 0.00 0.00 0.00 28 1012.7
20260509031622 17 325 0.0 3.2 0.00 0.00 0.00 27 1012.6
20260509031119 18 356 1.6 3.2 0.00 0.00 0.00 27 1012.4
20260509030617 17 294 0.0 3.2 0.00 0.00 0.00 27 1012.4
20260509030114 17 330 1.6 3.2 0.00 0.00 0.00 28 1012.4
20260509025610 17 323 0.0 3.2 0.00 0.00 0.00 28 1012.6
20260509025105 18 327 0.0 1.6 0.00 0.00 0.00 27 1012.2
20260509024601 18 335 1.6 1.6 0.00 0.00 0.00 27 1012.1
20260509024057 18 350 0.0 4.8 0.00 0.00 0.00 26 1011.9
20260509023555 18 349 1.6 4.8 0.00 0.00 0.00 26 1011.8
20260509023052 19 347 0.0 3.2 0.00 0.00 0.00 26 1011.8
20260509022548 19 335 0.0 0.0 0.00 0.00 0.00 26 1011.7
20260509022047 20 332 0.0 0.0 0.00 0.00 0.00 26 1011.7
20260509021543 20 312 3.2 6.4 0.00 0.00 0.00 25 1011.6
20260509021040 20 353 0.0 6.4 0.00 0.00 0.00 25 1011.5
20260509020539 20 348 3.2 4.8 0.00 0.00 0.00 25 1011.4
20260509020035 20 327 0.0 6.4 0.00 0.00 0.00 24 1011.2
20260509015534 21 346 6.4 12.9 0.00 0.00 0.00 24 1011.2
20260509015031 21 352 0.0 6.4 0.00 0.00 0.00 23 1011.5
20260509014528 21 358 3.2 11.3 0.00 0.00 0.00 22 1011.2
20260509014024 21 8 6.4 9.7 0.00 0.00 0.00 21 1011.2
20260509013521 21 33 11.3 16.1 0.00 0.00 0.00 21 1011.4
20260509013016 21 352 4.8 12.9 0.00 0.00 0.00 21 1011.2
20260509012513 21 34 8.0 14.5 0.00 0.00 0.00 21 1011.5
20260509012010 21 333 1.6 12.9 0.00 0.00 0.00 21 1011.1
20260509011508 22 340 9.7 12.9 0.00 0.00 0.00 20 1011.2
20260509011005 22 341 4.8 12.9 0.00 0.00 0.00 20 1011.1
20260509010503 22 349 3.2 16.1 0.00 0.00 0.00 20 1011.2
20260509005959 22 3 11.3 17.7 0.00 0.00 0.00 20 1011.1
20260509005458 22 1 8.0 20.9 0.00 0.00 0.00 20 1011.2
20260509004957 22 332 11.3 20.9 0.00 0.00 0.00 19 1010.9
20260509004454 22 323 14.5 22.5 0.00 0.00 0.00 19 1011.2
20260509003952 22 338 12.9 22.5 0.00 0.00 0.00 19 1011.1
20260509003450 22 348 11.3 22.5 0.00 0.00 0.00 19 1011.1
20260509002946 22 348 14.5 25.7 0.00 0.00 0.00 19 1011.0
20260509002444 22 343 20.9 29.0 0.00 0.00 0.00 19 1011.1
20260509001941 22 318 11.3 22.5 0.00 0.00 0.00 19 1011.1
20260509001438 23 354 12.9 27.4 0.00 0.00 0.00 19 1011.1
20260509000935 23 326 12.9 22.5 0.00 0.00 0.00 19 1011.1
20260509000433 23 353 17.7 22.5 0.00 0.00 0.00 19 1011.0
20260508235928 23 14 14.5 24.1 0.00 0.00 0.00 19 1011.2
20260508235426 23 349 16.1 22.5 0.00 0.00 0.00 19 1011.1
20260508234923 23 323 14.5 27.4 0.00 0.00 0.00 19 1011.1
20260508234420 23 324 9.7 20.9 0.00 0.00 0.00 20 1011.1
20260508233917 23 326 9.7 14.5 0.00 0.00 0.00 19 1011.0
20260508233417 24 322 8.0 22.5 0.00 0.00 0.00 20 1011.1
20260508232913 23 336 11.3 25.7 0.00 0.00 0.00 19 1011.0
20260508232410 23 332 8.0 22.5 0.00 0.00 0.00 20 1011.0
20260508231908 24 323 14.5 27.4 0.00 0.00 0.00 20 1011.2
20260508231404 24 331 14.5 27.4 0.00 0.00 0.00 20 1011.0
20260508230901 24 306 16.1 22.5 0.00 0.00 0.00 20 1010.8
20260508230358 25 339 19.3 27.4 0.00 0.00 0.00 19 1010.9
20260508225855 25 318 12.9 24.1 0.00 0.00 0.00 19 1010.8
20260508225351 25 327 14.5 22.5 0.00 0.00 0.00 19 1011.0
20260508224850 26 339 16.1 20.9 0.00 0.00 0.00 18 1010.8
20260508224347 25 348 11.3 30.6 0.00 0.00 0.00 19 1010.8
20260508223844 26 347 17.7 27.4 0.00 0.00 0.00 18 1011.0
20260508223341 26 321 16.1 25.7 0.00 0.00 0.00 18 1011.0
20260508222839 25 293 9.7 17.7 0.00 0.00 0.00 19 1011.1
20260508222336 26 342 12.9 29.0 0.00 0.00 0.00 18 1011.1
20260508221832 25 283 9.7 20.9 0.00 0.00 0.00 20 1011.0
20260508221328 25 298 19.3 27.4 0.00 0.00 0.00 20 1011.2
20260508220825 26 295 12.9 16.1 0.00 0.00 0.00 20 1011.0
20260508220321 26 285 12.9 29.0 0.00 0.00 0.00 20 1011.1
20260508215818 26 287 16.1 25.7 0.00 0.00 0.00 20 1011.1
20260508215314 25 289 11.3 24.1 0.00 0.00 0.00 20 1010.9
20260508214811 25 278 16.1 22.5 0.00 0.00 0.00 20 1011.2
20260508214308 25 286 11.3 17.7 0.00 0.00 0.00 20 1011.2
20260508213805 25 313 6.4 22.5 0.00 0.00 0.00 19 1011.4
20260508213302 25 308 19.3 25.7 0.00 0.00 0.00 18 1011.4
20260508212758 25 272 19.3 25.7 0.00 0.00 0.00 19 1011.6
20260508212254 25 274 6.4 16.1 0.00 0.00 0.00 19 1011.4
20260508211750 25 246 22.5 27.4 0.00 0.00 0.00 19 1011.5
20260508211246 25 291 16.1 17.7 0.00 0.00 0.00 20 1011.4
20260508210744 25 310 24.1 33.8 0.00 0.00 0.00 20 1011.6
20260508210241 25 304 12.9 22.5 0.00 0.00 0.00 21 1011.7
20260508205737 25 305 6.4 16.1 0.00 0.00 0.00 21 1011.6
20260508205234 25 237 17.7 22.5 0.00 0.00 0.00 20 1011.7
20260508204730 25 339 14.5 24.1 0.00 0.00 0.00 20 1011.7
20260508204227 25 332 17.7 24.1 0.00 0.00 0.00 20 1011.8
20260508203723 25 267 12.9 24.1 0.00 0.00 0.00 19 1011.6
20260508203219 25 288 14.5 25.7 0.00 0.00 0.00 20 1011.7
20260508202715 25 300 14.5 29.0 0.00 0.00 0.00 21 1011.7
20260508202213 25 226 9.7 20.9 0.00 0.00 0.00 22 1011.7
20260508201709 24 309 8.0 17.7 0.00 0.00 0.00 21 1011.8
20260508201206 24 236 9.7 20.9 0.00 0.00 0.00 23 1011.9
20260508200703 24 255 12.9 24.1 0.00 0.00 0.00 24 1012.2
20260508200159 25 233 12.9 25.7 0.00 0.00 0.00 22 1012.1
20260508195656 24 273 12.9 16.1 0.00 0.00 0.00 24 1012.2
20260508195152 24 247 6.4 22.5 0.00 0.00 0.00 26 1012.0
20260508194649 23 299 4.8 14.5 0.00 0.00 0.00 27 1012.1
20260508194146 24 254 9.7 22.5 0.00 0.00 0.00 26 1012.2
20260508193643 25 241 9.7 25.7 0.00 0.00 0.00 26 1012.2
20260508193139 24 268 8.0 20.9 0.00 0.00 0.00 26 1012.3
20260508192636 23 274 17.7 24.1 0.00 0.00 0.00 26 1012.4
20260508192133 23 289 9.7 12.9 0.00 0.00 0.00 27 1012.4
20260508191630 23 319 8.0 17.7 0.00 0.00 0.00 27 1012.6
20260508191127 24 302 11.3 17.7 0.00 0.00 0.00 27 1012.7
20260508190624 23 284 6.4 12.9 0.00 0.00 0.00 28 1012.9
20260508190120 23 291 16.1 20.9 0.00 0.00 0.00 28 1013.0
20260508185617 23 273 11.3 20.9 0.00 0.00 0.00 29 1012.8
20260508185115 22 247 8.0 16.1 0.00 0.00 0.00 30 1013.0
20260508184612 23 253 12.9 14.5 0.00 0.00 0.00 30 1013.1
20260508184109 22 273 8.0 17.7 0.00 0.00 0.00 30 1013.0
20260508183605 22 272 6.4 11.3 0.00 0.00 0.00 31 1013.3
20260508183101 22 322 11.3 14.5 0.00 0.00 0.00 32 1013.3
20260508182558 22 337 4.8 16.1 0.00 0.00 0.00 33 1013.3
20260508182055 22 277 1.6 4.8 0.00 0.00 0.00 33 1013.4
20260508181549 22 270 8.0 14.5 0.00 0.00 0.00 33 1013.7
20260508181047 22 286 6.4 9.7 0.00 0.00 0.00 33 1013.5
20260508180543 21 269 9.7 12.9 0.00 0.00 0.00 34 1013.7
20260508180040 21 269 0.0 14.5 0.00 0.00 0.00 37 1013.7
20260508175537 21 227 8.0 17.7 0.00 0.00 0.00 36 1013.7
20260508175034 21 249 9.7 22.5 0.00 0.00 0.00 36 1013.8
20260508174531 21 274 3.2 12.9 0.00 0.00 0.00 35 1013.8
20260508174028 21 240 11.3 16.1 0.00 0.00 0.00 36 1013.8
20260508173525 20 261 4.8 6.4 0.00 0.00 0.00 37 1013.9
20260508173021 20 298 3.2 11.3 0.00 0.00 0.00 39 1014.1
20260508172519 20 233 1.6 11.3 0.00 0.00 0.00 39 1014.0
20260508172015 20 297 4.8 14.5 0.00 0.00 0.00 39 1014.1
20260508171512 20 276 6.4 9.7 0.00 0.00 0.00 39 1014.1
20260508171008 20 268 4.8 9.7 0.00 0.00 0.00 39 1014.4
20260508170506 20 285 6.4 14.5 0.00 0.00 0.00 39 1014.3
20260508170002 20 224 6.4 14.5 0.00 0.00 0.00 40 1014.3
20260508165500 20 224 6.4 12.9 0.00 0.00 0.00 41 1014.5
20260508164956 20 246 6.4 14.5 0.00 0.00 0.00 41 1014.3
20260508164453 20 238 6.4 11.3 0.00 0.00 0.00 41 1014.3
20260508163950 19 247 3.2 9.7 0.00 0.00 0.00 43 1014.5
20260508163448 19 256 6.4 11.3 0.00 0.00 0.00 42 1014.4
20260508162943 18 298 3.2 12.9 0.00 0.00 0.00 42 1014.5
20260508162441 18 224 6.4 12.9 0.00 0.00 0.00 46 1014.7
20260508161937 18 279 1.6 4.8 0.00 0.00 0.00 46 1014.7
20260508161434 18 238 3.2 4.8 0.00 0.00 0.00 47 1014.7
20260508160932 17 273 3.2 9.7 0.00 0.00 0.00 48 1014.9
20260508160431 17 215 6.4 9.7 0.00 0.00 0.00 49 1014.9
20260508155926 17 254 3.2 12.9 0.00 0.00 0.00 51 1014.7
20260508155424 16 250 4.8 9.7 0.00 0.00 0.00 50 1015.1
20260508154921 16 232 6.4 9.7 0.00 0.00 0.00 51 1015.0
20260508154418 17 242 1.6 4.8 0.00 0.00 0.00 51 1015.1
20260508153915 16 265 3.2 4.8 0.00 0.00 0.00 51 1015.1
20260508153412 15 260 4.8 6.4 0.00 0.00 0.00 54 1015.2
20260508152908 15 225 6.4 9.7 0.00 0.00 0.00 56 1015.3
20260508152404 14 226 3.2 9.7 0.00 0.00 0.00 57 1015.3
20260508151901 14 257 6.4 9.7 0.00 0.00 0.00 58 1015.2